Location: Newark
(13.8117°N, 3.6025°W)
Time: 10:39:25
(UTC+00:00)

Tiros 1 - All Passes

Search period start: 22 August 2019 00:00
Search period end: 01 September 2019 00:00
Orbit: 630 x 664 km, 48.4° (Epoch: 21 August)

Date Brightness Start Highest point End Pass type
(mag) Time Alt. Az. Time Alt. Az. Time Alt. Az.
22 Aug - 07:52:55 10° NNW 07:57:31 50° NE 08:02:09 10° ESE daylight
22 Aug - 09:36:55 10° W 09:39:27 14° SW 09:42:00 10° SSW daylight
22 Aug - 21:54:06 10° SW 21:58:41 73° NW 22:03:17 10° NE night (unlit)
23 Aug - 06:38:24 10° N 06:41:17 16° NE 06:44:09 10° E daylight
23 Aug - 08:18:56 10° NW 08:23:32 50° SW 08:28:10 10° SSE daylight
23 Aug - 20:38:44 10° S 20:42:45 29° SE 20:46:45 10° ENE night (unlit)
23 Aug - 22:21:08 10° W 22:24:49 23° NW 22:28:31 10° N night (unlit)
24 Aug - 07:02:59 10° NNW 07:07:30 44° NE 07:12:04 10° ESE daylight
24 Aug - 08:46:33 10° W 08:49:28 16° SW 08:52:23 10° SSW daylight
24 Aug - 21:04:05 10° SW 21:08:42 82° NW 21:13:19 10° NE night (unlit)
25 Aug - 05:48:44 10° N 05:51:14 14° NE 05:53:45 10° ENE daylight
25 Aug - 07:28:53 10° NW 07:33:32 57° SW 07:38:13 10° SSE daylight
25 Aug - 19:48:55 10° S 19:52:46 26° SE 19:56:37 10° ENE visible
25 Aug - 21:30:57 10° WSW 21:34:48 26° NW 21:38:40 10° NNE night (unlit)
26 Aug - 06:13:04 10° NNW 06:17:29 39° NE 06:21:56 10° ESE daylight
26 Aug - 07:56:15 10° W 07:59:28 18° SW 08:02:42 10° S daylight
26 Aug - 20:14:05 10° SW 20:18:43 88° SE 20:23:19 10° NE visible
27 Aug - 04:59:08 10° NNE 05:01:12 13° NE 05:03:15 10° ENE visible
27 Aug - 06:38:51 10° NW 06:43:32 65° SW 06:48:15 10° SSE daylight
27 Aug - 18:59:06 10° S 19:02:48 23° SE 19:06:27 10° ENE visible
27 Aug - 20:40:47 10° WSW 20:44:48 29° NW 20:48:49 10° NNE visible
28 Aug - 05:23:10 10° NNW 05:27:28 35° NE 05:31:48 10° ESE visible
28 Aug - 07:06:00 10° W 07:09:28 20° SW 07:12:58 10° S daylight
28 Aug - 19:24:06 10° SW 19:28:44 78° SE 19:33:20 10° NE visible
28 Aug - 21:10:29 10° NW 21:11:07 10° NW 21:11:45 10° NNW visible
29 Aug - 04:09:42 10° NNE 04:11:09 11° NE 04:12:35 10° ENE visible
29 Aug - 05:48:50 10° NW 05:53:32 74° SW 05:58:16 10° SE daylight
29 Aug - 18:09:20 10° S 18:12:49 21° SE 18:16:16 10° E daylight
29 Aug - 19:50:38 10° WSW 19:54:47 32° NW 19:58:56 10° NNE visible
30 Aug - 04:33:18 10° NNW 04:37:27 31° NE 04:41:39 10° ESE visible
30 Aug - 06:15:48 10° WNW 06:19:28 23° SW 06:23:11 10° S daylight
30 Aug - 18:34:07 10° SSW 18:38:45 68° SE 18:43:20 10° NE daylight
30 Aug - 20:19:30 10° WNW 20:21:05 12° NW 20:22:40 10° NNW visible
31 Aug - 04:58:50 10° NW 05:03:31 83° SW 05:08:16 10° SE visible
31 Aug - 17:19:36 10° S 17:22:50 18° SE 17:26:02 10° E daylight
31 Aug - 19:00:30 10° WSW 19:04:48 36° NW 19:09:03 10° NNE visible
